Dewpoint
59 60 62 62 62 64 64 64 64 64 65 65 63 64 65 67 67 66 67 68 67 66 65 64 64 64 64 63 61 62 60 61 61 62 62 63 63 62 65 65 66 65 65 65 66 65 66 66 66 66 66 65 66 64 64 65 65 65 66 65 64 64 64 65 65 64 62 62 63 63 63 63 64 64 63 62 62 63 63 63 62 63 63 63 64
59 61 61 62 62 63 64 65 65 64 64 64 64 64 66 65 64 67 67 68 67 66 65 65 65 62 61 59 58 58 58 58 61 60 61 63 63 63 64 65 66 65 65 65 66 66 66 65 65 65 65 65 65 64 64 64 65 65 65 64 64 63 64 64 64 64 61 60 60 60 62 62 63 63 60 59 61 61 62 62 62 62 61 63 63
60 60 61 61 62 63 63 65 65 65 64 64 65 64 65 65 65 68 67 67 67 67 66 65 64 64 63 61 60 57 60 61 59 60 60 59 64 63 63 63 63 63 65 65 65 65 65 65 65 64 65 65 65 64 64 64 65 65 65 63 63 63 63 64 64 64 59 61 62 59 57 57 60 62 63 61 61 62 61 61 60 59 59 60 62
58 59 60 61 62 62 63 64 64 65 63 63 64 63 64 65 66 68 67 67 67 67 66 65 64 64 65 65 63 60 60 63 63 62 61 61 61 62 62 63 62 61 61 60 64 65 66 65 64 64 64 65 65 64 64 63 64 64 64 64 63 62 61 62 64 65 62 59 56 54 57 56 54 57 59 61 61 62 61 59 58 57 58 59 60
58 59 60 61 62 62 62 63 64 64 64 63 63 63 64 66 66 66 66 66 67 67 66 65 64 64 63 66 64 63 61 59 57 56 58 58 57 60 61 62 61 60 61 60 59 62 62 62 61 62 63 64 64 63 63 63 63 64 64 63 62 61 60 62 63 64 64 63 59 54 54 54 53 58 58 59 60 58 59 58 60 58 57 58 58
58 59 59 61 61 63 63 64 64 62 63 64 65 64 65 66 67 67 67 65 65 66 65 64 64 62 62 59 58 57 56 56 54 54 55 56 52 57 57 59 59 61 59 59 59 59 61 61 62 59 60 62 62 63 62 62 63 62 63 62 63 62 61 59 60 63 64 64 64 64 62 57 57 59 58 55 59 60 58 54 56 57 58 57 57
58 58 59 61 62 63 63 63 63 63 63 65 65 65 65 65 66 67 67 66 66 66 65 65 64 62 62 59 58 57 56 56 56 57 56 54 55 56 55 61 58 59 60 59 59 58 60 61 61 60 60 61 62 61 61 61 60 60 62 62 61 61 62 61 61 61 61 62 63 63 62 61 62 58 55 56 54 55 56 56 55 54 55 55 54
57 57 58 60 62 62 63 64 65 65 64 65 65 65 65 65 67 67 67 66 66 66 65 65 63 62 61 59 58 56 57 57 58 58 58 56 54 56 57 57 58 58 59 58 59 58 59 60 60 61 58 58 57 58 60 60 61 60 63 63 63 63 63 60 60 61 59 60 61 62 62 61 61 61 59 58 52 52 50 51 54 56 55 54 53
57 58 58 59 61 62 63 64 65 65 65 65 64 65 65 65 66 66 67 66 66 66 65 64 63 62 61 60 57 57 57 58 57 56 56 56 56 57 57 55 58 59 58 58 58 58 59 59 60 59 59 58 56 57 59 59 60 61 62 61 64 64 64 63 61 60 60 59 60 61 60 58 59 61 60 57 51 51 49 49 50 52 53 52 52
57 58 59 60 60 62 64 65 65 64 65 65 65 65 65 65 65 65 65 65 66 65 64 64 63 62 61 61 60 58 57 57 55 55 56 56 56 57 56 56 55 57 59 58 59 57 58 59 58 59 60 58 57 58 59 59 60 60 61 61 62 61 61 62 62 61 60 61 60 60 58 58 57 57 56 54 52 53 49 46 50 50 49 49 51
56 57 59 61 61 62 63 63 64 65 65 64 64 64 64 64 64 64 65 65 65 65 64 64 63 62 60 61 60 59 59 58 56 56 54 54 54 55 55 55 55 56 57 59 60 58 60 59 58 58 59 58 56 56 58 57 58 59 60 61 61 61 62 62 62 62 61 60 59 59 58 57 59 54 54 54 53 52 51 49 49 46 47 48 49
56 56 57 60 60 61 63 63 64 64 64 63 63 63 62 62 62 62 62 64 64 64 65 64 62 62 61 62 60 60 59 57 56 55 54 53 54 54 53 54 54 56 57 57 59 59 59 58 59 58 58 58 57 57 56 55 56 56 57 59 59 61 61 61 61 61 61 60 60 59 58 57 57 57 53 54 54 52 52 50 46 45 43 42 42
55 55 57 59 59 60 61 62 63 63 63 62 62 60 58 58 58 58 58 59 61 62 64 63 63 62 61 61 61 60 58 56 54 54 54 53 53 52 52 52 53 55 56 57 59 59 57 57 58 57 56 57 57 55 56 57 56 56 56 57 58 58 58 60 61 62 62 59 57 55 53 54 54 53 55 55 55 53 51 49 44 43 44 43 42
54 55 55 57 59 59 62 62 62 62 61 58 57 56 58 59 59 58 57 59 58 60 62 62 63 62 62 62 61 59 59 57 54 54 54 53 53 53 52 50 53 55 57 57 56 56 55 56 57 57 55 55 57 58 58 56 56 52 55 55 56 57 58 59 59 59 58 57 55 53 52 50 49 48 48 49 51 49 46 45 45 44 44 38 38
53 54 53 55 58 60 61 61 59 57 57 57 57 58 59 60 59 58 56 57 58 60 61 62 62 61 60 62 60 59 58 55 54 55 55 54 53 54 53 53 53 55 54 56 56 55 55 56 56 55 55 57 58 58 56 56 55 51 51 55 54 54 55 55 55 56 56 55 55 49 47 44 44 40 42 40 38 45 46 46 43 43 42 40 37
52 53 56 57 59 59 60 58 56 56 58 59 58 59 60 61 61 59 57 57 58 59 60 61 61 61 61 62 60 59 56 56 56 55 54 54 54 53 53 53 53 53 54 55 55 54 53 54 53 53 54 55 56 55 54 53 54 51 51 52 52 51 53 53 52 53 54 53 51 48 45 43 45 42 42 44 41 44 45 43 43 41 39 40 39
53 54 55 57 58 59 58 57 57 59 60 60 60 60 59 59 59 59 58 58 58 59 60 61 61 62 62 62 60 59 58 58 55 55 55 56 55 53 51 52 54 54 54 55 56 54 53 53 50 51 52 54 55 54 53 53 52 51 51 51 52 52 51 50 50 50 51 51 52 50 46 47 48 49 46 46 46 45 44 44 42 41 43 40 40
54 54 54 55 57 57 57 57 58 59 58 59 60 60 59 59 59 60 58 58 58 59 60 60 62 61 61 61 61 59 59 57 56 56 57 56 55 53 53 52 53 54 54 55 55 54 53 52 50 50 51 51 52 50 49 50 50 47 49 48 47 47 48 48 49 49 50 50 50 49 49 48 50 50 51 52 50 49 44 42 40 41 41 39 40
51 52 54 56 56 56 55 56 56 58 59 59 60 60 58 58 57 58 59 58 58 58 59 61 61 60 60 61 60 58 58 55 54 56 58 57 56 53 52 52 54 54 53 55 54 52 52 50 50 49 50 50 50 50 50 50 48 47 48 46 48 46 45 47 48 49 49 49 51 50 50 48 51 51 50 50 50 48 44 42 42 45 46 46 43
50 51 52 54 55 56 57 57 57 56 57 58 59 58 58 58 57 57 58 58 58 58 59 59 59 59 59 59 59 56 56 54 53 55 56 56 54 53 52 54 54 52 53 53 51 51 52 51 50 49 49 47 47 48 48 49 50 49 48 46 48 47 45 46 46 48 44 48 49 48 48 47 48 47 48 49 48 49 48 42 43 44 44 46 44
48 48 48 50 53 55 56 56 57 57 57 58 58 58 58 58 58 57 58 58 58 58 58 59 59 59 60 60 59 59 57 54 53 54 56 56 55 54 53 53 52 52 52 52 50 50 49 50 50 50 48 48 47 48 49 49 48 48 47 47 47 45 43 43 46 48 47 48 45 46 47 48 49 48 47 47 44 44 46 45 44 42 42 45 45
51 50 51 51 53 55 54 56 57 57 59 57 58 58 58 58 57 58 57 57 57 58 58 59 60 60 59 58 59 59 57 56 55 54 56 55 53 52 54 52 53 53 52 49 47 50 49 49 48 48 50 48 47 47 48 48 45 48 49 49 48 45 44 43 46 43 46 45 47 44 43 47 46 44 47 39 40 40 38 38 38 40 40 44 45
52 52 52 54 55 56 55 55 56 57 57 57 57 58 57 57 57 57 57 57 58 58 58 59 59 60 60 59 59 58 58 59 58 57 56 55 53 51 53 55 52 52 52 50 49 50 48 48 48 48 48 48 48 49 51 50 48 47 45 48 48 46 46 47 46 44 41 44 45 45 45 47 47 47 47 46 45 41 37 36 40 39 41 41 40
54 53 54 54 55 55 55 56 55 56 57 57 57 57 58 57 58 56 57 57 57 58 59 59 59 59 59 59 58 58 58 59 59 57 57 56 56 55 50 52 52 52 50 52 51 48 48 48 48 47 48 49 50 51 50 49 48 48 48 47 47 48 46 46 45 43 41 45 46 47 47 48 48 47 45 44 45 44 43 39 41 42 43 41 44
51 51 52 52 52 52 52 54 54 55 55 56 56 57 57 58 57 56 57 57 57 57 57 57 57 58 58 58 58 58 58 58 58 56 56 57 57 57 54 48 52 53 52 53 51 49 49 48 50 46 47 47 48 48 49 49 50 51 50 50 49 48 50 48 48 46 48 46 47 47 46 46 48 48 47 45 44 46 39 41 40 38 38 41 43
49 50 49 49 48 48 50 52 52 54 54 55 55 56 56 57 57 58 56 57 57 57 57 57 57 57 57 57 57 57 57 58 57 56 56 56 57 57 57 54 52 52 54 53 52 51 49 48 47 46 47 46 46 47 47 48 48 50 52 52 52 52 51 50 50 50 47 48 49 48 47 47 47 49 48 47 47 46 43 43 41 36 34 40 44
47 47 47 46 46 46 46 48 50 52 53 54 54 54 54 56 56 56 56 57 58 58 58 57 57 57 57 57 57 58 57 57 57 57 56 55 55 57 56 54 54 53 54 54 53 52 53 52 51 51 50 50 50 50 51 51 51 51 52 52 53 53 53 52 52 50 50 50 50 49 50 49 48 48 49 49 49 49 47 46 45 44 37 42 43
44 44 44 44 44 44 45 45 46 46 49 51 52 53 54 55 55 55 56 57 57 58 57 57 57 57 57 58 59 59 59 59 58 57 57 57 56 57 57 55 55 54 54 52 53 54 55 53 53 53 52 53 53 52 52 52 52 53 54 54 54 55 54 55 55 53 53 52 52 51 51 51 50 49 50 50 50 50 49 49 50 45 43 43 43
41 42 42 42 42 43 43 42 42 43 43 44 45 50 53 54 54 55 56 56 57 57 56 56 57 57 57 57 58 58 59 58 57 57 57 56 56 57 57 56 57 56 55 53 54 54 55 53 54 54 54 55 56 55 54 55 54 54 55 55 55 54 55 55 55 55 55 54 53 53 53 52 52 54 49 50 50 50 51 50 50 47 45 43 43
39 39 40 41 41 41 41 42 42 41 40 39 40 40 41 46 51 52 54 55 56 56 56 55 55 56 56 56 57 57 57 57 57 56 56 56 56 57 58 57 57 56 57 55 55 55 54 54 54 55 55 57 57 57 57 51 51 55 56 54 56 56 54 55 56 56 57 56 56 55 56 54 51 50 48 47 46 46 49 50 51 47 44 44 44
36 36 37 38 39 39 39 39 40 41 41 40 40 40 40 40 41 44 49 52 51 54 54 54 54 54 55 55 55 56 56 56 56 56 56 56 55 57 57 57 57 56 57 57 56 55 55 55 55 55 56 57 58 58 47 46 47 49 54 56 55 55 55 55 56 57 57 57 57 55 56 54 53 50 50 44 44 43 44 44 41 40 45 52 45
33 33 34 34 34 35 35 36 37 36 37 38 39 38 39 39 39 38 38 41 46 47 49 51 53 54 54 54 54 54 54 55 55 55 56 56 57 57 57 57 58 58 58 58 58 56 56 56 56 56 57 57 57 51 44 44 44 45 49 56 55 56 57 56 57 56 56 56 56 57 56 57 55 53 51 50 45 42 41 39 37 37 36 36 37
30 31 32 32 31 32 35 35 33 32 31 33 35 37 39 39 40 40 38 39 40 41 41 42 43 45 49 53 54 54 54 55 55 55 57 57 56 56 56 56 57 58 57 56 56 57 57 57 56 55 56 56 56 43 43 42 42 42 42 48 53 56 56 58 58 58 57 57 57 57 57 57 55 53 51 52 51 47 39 38 38 38 37 36 34
32 31 31 33 34 34 35 36 34 32 31 33 35 34 35 38 37 37 39 39 38 39 40 40 40 40 40 40 44 49 53 55 56 56 56 55 57 56 57 56 55 56 56 57 57 57 57 56 56 55 55 55 55 43 42 41 42 41 41 44 56 57 58 58 58 57 57 56 56 56 55 55 56 54 54 53 53 50 46 41 40 40 39 41 36
34 33 33 35 36 37 37 38 35 32 34 33 31 35 33 32 34 34 36 39 38 38 40 41 41 40 40 40 39 40 44 49 52 53 55 54 56 57 57 57 56 56 55 56 56 56 56 55 54 54 54 54 55 42 42 41 41 40 39 41 57 57 57 54 54 54 54 53 53 53 54 53 53 54 54 53 52 49 46 44 42 41 41 41 44
38 39 40 40 37 36 37 39 38 36 36 33 32 32 31 30 30 32 33 34 36 37 37 39 40 40 41 41 40 40 42 42 46 52 53 53 54 56 57 56 55 55 55 57 56 54 54 54 54 54 54 54 59 39 40 40 40 40 38 53 57 56 53 51 53 54 54 53 53 53 52 52 52 51 46 44 47 48 46 44 43 44 44 45 42
36 36 38 40 39 38 39 39 39 37 34 35 34 34 32 31 29 27 27 31 34 34 34 36 37 37 39 40 41 40 42 41 41 44 48 53 54 55 58 57 57 56 55 55 55 54 54 55 54 54 55 56 58 45 38 39 39 39 43 56 54 49 48 51 52 54 53 54 54 53 53 51 52 52 41 39 40 42 46 45 43 44 44 42 40
32 32 32 34 35 34 33 33 35 35 35 35 34 34 32 31 31 29 26 28 29 32 32 33 35 35 36 36 39 39 40 41 42 41 44 48 52 53 54 57 56 56 56 56 56 55 55 55 55 56 57 57 57 46 37 38 39 39 47 52 47 47 49 51 52 52 51 49 47 45 49 52 50 47 36 36 37 42 46 45 44 44 44 43 42
31 32 32 32 34 34 32 32 34 33 33 35 35 34 32 32 33 31 30 29 32 32 31 32 34 34 34 35 37 39 40 41 41 42 46 48 49 50 50 54 53 55 56 56 54 53 54 55 55 56 50 57 55 45 37 38 38 39 44 55 46 45 49 49 49 49 49 48 46 45 41 45 46 42 35 36 37 41 47 46 45 44 42 43 42
30 31 32 31 33 31 33 34 33 34 34 34 32 31 34 34 34 33 32 32 34 35 32 33 33 34 34 35 37 38 40 40 40 42 45 47 49 49 51 52 52 50 52 51 52 52 50 48 50 49 53 52 52 52 45 37 39 39 39 52 48 44 46 48 47 47 47 47 45 44 40 35 35 36 36 37 37 38 45 45 45 44 43 42 41
28 30 33 28 28 30 30 32 32 33 33 33 31 33 32 31 33 34 33 35 36 35 35 35 35 34 32 32 34 37 40 41 40 41 43 43 45 47 48 49 48 47 47 46 45 45 45 45 45 47 48 53 53 51 48 36 38 38 39 41 48 46 47 46 46 46 46 45 43 42 40 35 34 35 35 35 35 35 38 45 45 44 43 41 38
30 32 30 29 28 31 31 31 31 30 31 31 31 32 32 31 32 33 34 35 35 35 36 34 34 33 34 35 36 38 41 42 41 42 42 42 43 46 48 49 41 44 47 46 46 44 43 42 44 44 47 49 47 47 50 39 37 39 40 39 49 48 48 46 46 45 44 43 42 40 39 35 34 34 34 34 34 34 35 39 39 33 33 33 38
30 29 26 27 27 28 29 31 29 30 30 30 31 32 32 32 32 34 34 33 35 36 35 35 35 35 36 35 36 38 39 40 42 42 42 42 42 44 45 46 46 47 47 47 46 44 43 42 43 44 45 47 48 45 40 47 37 39 39 40 39 47 39 49 46 45 44 41 40 39 36 35 34 34 34 34 34 34 34 35 33 32 32 31 33
28 27 27 28 28 28 30 31 31 31 31 31 32 31 31 31 32 32 33 33 33 33 33 34 36 36 36 35 34 35 37 39 39 40 40 41 41 42 42 42 43 41 40 41 39 43 41 42 43 44 46 47 47 45 39 41 43 37 38 38 38 39 40 46 47 45 43 40 39 37 35 34 34 34 34 33 33 33 33 32 32 32 32 33 35
30 29 30 30 28 31 30 30 31 32 32 32 32 32 33 33 34 34 32 32 32 32 33 33 34 34 35 34 35 35 36 36 37 38 39 37 39 42 41 41 42 40 37 37 35 36 37 38 39 42 43 43 45 43 42 39 39 37 36 36 36 36 36 38 45 44 43 42 36 34 34 33 33 33 32 32 32 32 32 32 32 32 34 34 34
30 30 30 29 30 31 30 32 32 32 32 33 33 32 33 34 33 33 32 33 33 33 33 33 32 33 33 31 33 33 33 35 36 35 37 37 38 39 41 39 39 40 38 38 35 35 35 36 38 38 39 41 44 44 42 41 38 38 36 35 35 35 36 36 38 37 34 33 33 33 33 33 32 33 35 35 32 32 32 32 33 33 38 31 30
30 31 31 31 30 29 29 31 32 32 31 31 32 31 31 31 30 30 31 32 32 33 33 34 34 33 34 32 33 32 31 33 35 34 34 35 35 35 39 39 39 40 39 37 39 38 36 36 37 36 39 42 43 44 43 41 41 40 39 38 38 38 35 35 36 35 33 33 33 33 33 34 33 33 34 33 32 32 32 32 33 35 33 31 33
31 31 31 30 30 29 30 30 31 31 32 32 32 31 31 32 32 32 32 32 32 31 32 32 33 34 33 33 33 32 33 32 33 34 32 31 33 36 35 38 36 37 37 39 40 38 37 38 37 40 41 37 40 42 43 43 43 41 40 40 40 39 39 39 36 35 35 34 34 33 34 34 34 33 32 33 34 35 32 31 31 31 32 29 28
30 31 31 30 30 30 32 32 32 33 33 33 33 33 31 33 33 33 33 33 33 33 33 33 33 32 33 34 33 33 32 32 32 32 30 30 31 35 38 38 43 42 42 44 46 46 44 45 41 38 39 40 38 39 42 39 43 38 39 41 41 40 39 38 37 35 36 36 34 34 32 33 32 32 31 33 30 30 30 32 35 34 31 31 30
30 30 31 31 32 33 33 32 32 33 33 33 33 33 34 32 33 33 34 34 34 33 33 33 32 33 32 30 34 32 32 32 32 31 31 36 33 33 39 42 40 39 38 39 42 42 46 46 45 46 45 42 40 42 36 36 36 36 37 37 37 36 36 37 35 34 34 33 33 33 32 31 33 29 29 28 29 29 30 30 29 26 29 26 24
30 31 31 32 33 33 33 33 33 34 34 34 34 34 34 34 34 34 34 34 34 34 33 33 32 32 32 33 31 31 33 32 32 32 33 30 35 37 34 32 34 35 35 35 36 36 36 36 41 43 42 35 36 35 35 36 36 35 35 34 34 34 34 34 33 33 33 32 31 31 30 30 28 28 27 27 27 27 26 25 27 27 27 27 24